| time (UTC) | temp C | wind direction | speed KPH | gust KPH | rain 1hr cm | rain 24hr cm | rain mn cm | humidity % | barometer mb |
| 20260505124535 | 13 | 120 | 0.0 | 3.2 | 0.00 | 0.00 | 0.00 | 81 | 1016.4 |
| 20260505123030 | 12 | 94 | 0.0 | 1.6 | 0.00 | 0.00 | 0.00 | 84 | 1016.5 |
| 20260505121530 | 10 | 0 | 0.0 | 3.2 | 0.00 | 0.00 | 0.00 | 88 | 1016.0 |
| 20260505120032 | 9 | 86 | 0.0 | 1.6 | 0.00 | 0.00 | 0.00 | 88 | 1016.0 |
| 20260505114527 | 8 | 0 | 0.0 | 1.6 | 0.00 | 0.00 | 0.00 | 92 | 1016.0 |
| 20260505113030 | 7 | 0 | 0.0 | 1.6 | 0.00 | 0.00 | 0.00 | 95 | 1016.1 |
| 20260505111529 | 6 | 0 | 0.0 | 0.0 | 0.00 | 0.00 | 0.00 | 95 | 1015.9 |
| 20260505101535 | 5 | 0 | 0.0 | 1.6 | 0.00 | 0.00 | 0.00 | 95 | 1015.7 |
| 20260505100031 | 5 | 0 | 0.0 | 0.0 | 0.00 | 0.00 | 0.00 | 95 | 1015.7 |
| 20260505094531 | 6 | 0 | 0.0 | 1.6 | 0.00 | 0.00 | 0.00 | 95 | 1015.6 |
| 20260505093036 | 6 | 0 | 0.0 | 1.6 | 0.00 | 0.00 | 0.00 | 95 | 1015.5 |
| 20260505091528 | 6 | 0 | 0.0 | 1.6 | 0.00 | 0.00 | 0.00 | 95 | 1015.4 |
| 20260505090031 | 6 | 0 | 0.0 | 1.6 | 0.00 | 0.00 | 0.00 | 95 | 1015.1 |
| 20260505084532 | 6 | 0 | 0.0 | 1.6 | 0.00 | 0.00 | 0.00 | 95 | 1015.2 |
| 20260505083033 | 6 | 0 | 0.0 | 1.6 | 0.00 | 0.00 | 0.00 | 95 | 1015.0 |
| 20260505081530 | 6 | 0 | 0.0 | 1.6 | 0.00 | 0.00 | 0.00 | 95 | 1015.0 |
| 20260505080030 | 6 | 0 | 0.0 | 0.0 | 0.00 | 0.00 | 0.00 | 95 | 1014.8 |
| 20260505074528 | 6 | 0 | 0.0 | 0.0 | 0.00 | 0.00 | 0.00 | 95 | 1014.7 |
| 20260505073031 | 7 | 0 | 0.0 | 1.6 | 0.00 | 0.00 | 0.00 | 95 | 1014.6 |
| 20260505071529 | 7 | 0 | 0.0 | 0.0 | 0.00 | 0.00 | 0.00 | 94 | 1014.5 |
| 20260505070034 | 7 | 0 | 0.0 | 1.6 | 0.00 | 0.00 | 0.00 | 94 | 1014.6 |
| 20260505064527 | 7 | 0 | 0.0 | 1.6 | 0.00 | 0.00 | 0.00 | 94 | 1014.8 |
| 20260505063029 | 7 | 61 | 0.0 | 1.6 | 0.00 | 0.00 | 0.00 | 94 | 1014.9 |
| 20260505061556 | 7 | 0 | 0.0 | 0.0 | 0.00 | 0.00 | 0.00 | 94 | 1015.0 |
| 20260505060030 | 7 | 0 | 0.0 | 1.6 | 0.00 | 0.00 | 0.00 | 93 | 1015.2 |
| 20260505054530 | 7 | 0 | 0.0 | 0.0 | 0.00 | 0.00 | 0.00 | 93 | 1015.2 |
| 20260505053038 | 8 | 0 | 0.0 | 0.0 | 0.00 | 0.00 | 0.00 | 93 | 1015.2 |
| 20260505051552 | 8 | 0 | 0.0 | 0.0 | 0.00 | 0.00 | 0.00 | 92 | 1015.2 |
| 20260505041531 | 9 | 0 | 0.0 | 0.0 | 0.00 | 0.00 | 0.00 | 89 | 1015.2 |
| 20260505040033 | 10 | 0 | 0.0 | 0.0 | 0.00 | 0.00 | 0.00 | 89 | 1015.2 |
| 20260505034530 | 10 | 0 | 0.0 | 0.0 | 0.00 | 0.00 | 0.00 | 88 | 1015.2 |
| 20260505033030 | 10 | 0 | 0.0 | 0.0 | 0.00 | 0.00 | 0.00 | 87 | 1015.5 |
| 20260505031530 | 10 | 0 | 0.0 | 0.0 | 0.00 | 0.00 | 0.00 | 86 | 1015.6 |
| 20260505030031 | 11 | 0 | 0.0 | 0.0 | 0.00 | 0.00 | 0.00 | 85 | 1015.5 |
| 20260505024529 | 11 | 0 | 0.0 | 0.0 | 0.00 | 0.00 | 0.00 | 84 | 1015.5 |
| 20260505023031 | 11 | 13 | 0.0 | 1.6 | 0.00 | 0.00 | 0.00 | 82 | 1015.5 |
| 20260505021530 | 12 | 0 | 0.0 | 0.0 | 0.00 | 0.00 | 0.00 | 81 | 1015.3 |
| 20260505020030 | 12 | 0 | 0.0 | 0.0 | 0.00 | 0.00 | 0.00 | 80 | 1015.2 |
| 20260505014530 | 13 | 0 | 0.0 | 0.0 | 0.00 | 0.00 | 0.00 | 78 | 1015.1 |
| 20260505013029 | 13 | 0 | 0.0 | 3.2 | 0.00 | 0.00 | 0.00 | 76 | 1014.9 |
| 20260505011532 | 14 | 0 | 0.0 | 1.6 | 0.00 | 0.00 | 0.00 | 74 | 1014.7 |
| 20260505010030 | 15 | 0 | 0.0 | 1.6 | 0.00 | 0.00 | 0.00 | 72 | 1014.7 |
| 20260505004534 | 16 | 0 | 0.0 | 0.0 | 0.00 | 0.00 | 0.00 | 68 | 1014.5 |
| 20260505003032 | 17 | 0 | 0.0 | 0.0 | 0.00 | 0.00 | 0.00 | 66 | 1014.3 |
| 20260505001532 | 18 | 0 | 0.0 | 0.0 | 0.00 | 0.00 | 0.00 | 63 | 1014.1 |
| 20260505000030 | 19 | 0 | 0.0 | 4.8 | 0.00 | 0.00 | 0.00 | 59 | 1014.1 |
| 20260504234532 | 20 | 0 | 0.0 | 6.4 | 0.00 | 0.00 | 0.00 | 56 | 1013.8 |
| 20260504233030 | 20 | 0 | 0.0 | 4.8 | 0.00 | 0.00 | 0.00 | 53 | 1013.7 |
| 20260504231530 | 20 | 302 | 1.6 | 4.8 | 0.00 | 0.00 | 0.00 | 47 | 1013.6 |
| 20260504230030 | 21 | 338 | 0.0 | 3.2 | 0.00 | 0.00 | 0.00 | 45 | 1013.6 |
| 20260504224532 | 22 | 20 | 1.6 | 4.8 | 0.00 | 0.00 | 0.00 | 41 | 1013.7 |
| 20260504223029 | 22 | 108 | 1.6 | 9.7 | 0.00 | 0.00 | 0.00 | 40 | 1013.8 |
| 20260504221530 | 22 | 135 | 3.2 | 11.3 | 0.00 | 0.00 | 0.00 | 39 | 1013.8 |
| 20260504220035 | 22 | 184 | 3.2 | 12.9 | 0.00 | 0.00 | 0.00 | 37 | 1013.9 |
| 20260504214530 | 22 | 141 | 11.3 | 22.5 | 0.00 | 0.00 | 0.00 | 37 | 1013.8 |
| 20260504213032 | 22 | 264 | 9.7 | 25.7 | 0.00 | 0.00 | 0.00 | 36 | 1013.9 |
| 20260504211529 | 23 | 275 | 9.7 | 20.9 | 0.00 | 0.00 | 0.00 | 37 | 1013.7 |
| 20260504210032 | 23 | 207 | 4.8 | 16.1 | 0.00 | 0.00 | 0.00 | 37 | 1013.6 |
| 20260504204530 | 23 | 212 | 8.0 | 17.7 | 0.00 | 0.00 | 0.00 | 37 | 1013.5 |
| 20260504203049 | 23 | 131 | 9.7 | 24.1 | 0.00 | 0.00 | 0.00 | 36 | 1013.6 |
| 20260504201532 | 24 | 149 | 8.0 | 24.1 | 0.00 | 0.00 | 0.00 | 35 | 1013.9 |
| 20260504200030 | 24 | 99 | 9.7 | 29.0 | 0.00 | 0.00 | 0.00 | 37 | 1013.9 |
| 20260504194533 | 24 | 221 | 8.0 | 22.5 | 0.00 | 0.00 | 0.00 | 36 | 1014.1 |
| 20260504193028 | 24 | 200 | 9.7 | 20.9 | 0.00 | 0.00 | 0.00 | 39 | 1014.3 |
| 20260504191530 | 23 | 90 | 9.7 | 24.1 | 0.00 | 0.00 | 0.00 | 39 | 1014.4 |
| 20260504190037 | 23 | 226 | 6.4 | 17.7 | 0.00 | 0.00 | 0.00 | 37 | 1014.7 |
| 20260504184534 | 23 | 80 | 9.7 | 20.9 | 0.00 | 0.00 | 0.00 | 38 | 1014.8 |
| 20260504183033 | 23 | 103 | 4.8 | 20.9 | 0.00 | 0.00 | 0.00 | 40 | 1014.9 |
| 20260504181530 | 23 | 150 | 12.9 | 22.5 | 0.00 | 0.00 | 0.00 | 39 | 1015.1 |
| 20260504180028 | 22 | 169 | 8.0 | 19.3 | 0.00 | 0.00 | 0.00 | 41 | 1015.2 |
| 20260504174530 | 22 | 236 | 4.8 | 19.3 | 0.00 | 0.00 | 0.00 | 42 | 1015.2 |
| 20260504173029 | 22 | 203 | 9.7 | 16.1 | 0.00 | 0.00 | 0.00 | 42 | 1015.6 |
| 20260504171529 | 22 | 173 | 6.4 | 16.1 | 0.00 | 0.00 | 0.00 | 43 | 1015.7 |